CW9461 Weather Reports


time (UTC)temp
F
wind
direction
speed
knots
gust
knots
rain 1hr
in
rain 24hr
in
rain mn
in
humidity
%
barometer
mb
20260905223605 80 258 4.3 11.3 0.00 0.00 0.00 36 1003.7
20260905223105 80 273 2.6 5.2 0.00 0.00 0.00 35 1003.7
20260905222604 80 303 4.3 10.4 0.00 0.00 0.00 33 1003.7
20260905222106 80 288 3.5 10.4 0.00 0.00 0.00 33 1003.7
20260905221604 80 280 3.5 6.1 0.00 0.00 0.00 33 1003.7
20260905221104 80 257 2.6 7.0 0.00 0.00 0.00 34 1003.7
20260905220605 80 262 4.3 7.0 0.00 0.00 0.00 34 1003.9
20260905220105 80 286 4.3 8.7 0.00 0.00 0.00 35 1003.7
20260905215605 80 271 4.3 7.8 0.00 0.00 0.00 35 1003.9
20260905215104 80 255 2.6 7.0 0.00 0.00 0.00 36 1003.8
20260905214605 79 278 2.6 8.7 0.00 0.00 0.00 37 1004.1
20260905214105 79 297 2.6 7.0 0.00 0.00 0.00 37 1004.1
20260905213606 79 271 3.5 11.3 0.00 0.00 0.00 38 1003.9
20260905212606 79 255 3.5 8.7 0.00 0.00 0.00 39 1004.1
20260905212104 79 261 4.3 7.0 0.00 0.00 0.00 40 1004.1
20260905211604 79 271 4.3 7.8 0.00 0.00 0.00 41 1004.1
20260905211105 79 294 4.3 7.0 0.00 0.00 0.00 41 1004.1
20260905210605 79 286 4.3 12.2 0.00 0.00 0.00 41 1004.1
20260905210105 79 274 3.5 7.0 0.00 0.00 0.00 41 1004.1
20260905205605 79 270 2.6 8.7 0.00 0.00 0.00 42 1004.1
20260905205105 79 263 2.6 7.0 0.00 0.00 0.00 43 1004.1
20260905204605 78 292 3.5 8.7 0.00 0.00 0.00 44 1004.1
20260905204105 78 286 2.6 7.0 0.00 0.00 0.00 45 1004.1
20260905203605 78 306 1.7 7.0 0.00 0.00 0.00 45 1004.1
20260905201604 77 275 2.6 8.7 0.00 0.00 0.00 46 1004.4
20260905201105 77 317 3.5 7.0 0.00 0.00 0.00 46 1004.4
20260905195606 77 330 1.7 4.3 0.00 0.00 0.00 47 1004.4
20260905195104 77 262 1.7 4.3 0.00 0.00 0.00 47 1004.7
20260905194604 76 317 2.6 7.0 0.00 0.00 0.00 48 1004.7
20260905193605 76 241 1.7 7.0 0.00 0.00 0.00 49 1004.7
20260905193104 76 238 2.6 7.0 0.00 0.00 0.00 49 1004.9
20260905192606 76 337 1.7 4.3 0.00 0.00 0.00 50 1004.9
20260905192104 75 308 1.7 4.3 0.00 0.00 0.00 51 1004.9
20260905191604 75 105 0.9 4.3 0.00 0.00 0.00 51 1005.1
20260905190604 74 243 0.9 4.3 0.00 0.00 0.00 53 1005.1
20260905190105 74 231 2.6 5.2 0.00 0.00 0.00 53 1005.1
20260905185604 74 228 0.9 5.2 0.00 0.00 0.00 54 1005.1
20260905185105 74 232 2.6 6.1 0.00 0.00 0.00 54 1005.1
20260905184604 73 209 1.7 4.3 0.00 0.00 0.00 55 1005.1
20260905184104 73 270 0.9 6.1 0.00 0.00 0.00 55 1005.1
20260905183604 73 272 2.6 6.1 0.00 0.00 0.00 56 1005.4
20260905183104 73 235 4.3 7.0 0.00 0.00 0.00 56 1005.1
20260905182604 72 212 1.7 4.3 0.00 0.00 0.00 57 1005.3
20260905182105 72 290 2.6 7.0 0.00 0.00 0.00 57 1005.4
20260905181604 72 279 1.7 4.3 0.00 0.00 0.00 58 1005.3
20260905181104 71 266 2.6 5.2 0.00 0.00 0.00 58 1005.4
20260905180604 71 239 2.6 5.2 0.00 0.00 0.00 57 1005.4
20260905180104 70 241 0.9 4.3 0.00 0.00 0.00 59 1005.4
20260905175605 70 241 0.9 4.3 0.00 0.00 0.00 59 1005.4
20260905175104 70 241 0.9 4.3 0.00 0.00 0.00 59 1005.4
20260905173605 69 241 2.6 5.2 0.00 0.00 0.00 62 1005.4
20260905173104 69 318 1.7 4.3 0.00 0.00 0.00 63 1005.4
20260905172604 69 299 1.7 5.2 0.00 0.00 0.00 64 1005.2
20260905171605 68 241 2.6 5.2 0.00 0.00 0.00 67 1005.4
20260905171105 68 245 1.7 4.3 0.00 0.00 0.00 68 1005.1
20260905170604 68 240 2.6 4.3 0.00 0.00 0.00 68 1005.1
20260905170105 69 293 1.7 2.6 0.00 0.00 0.00 67 1005.1
20260905165604 69 271 0.9 1.7 0.00 0.00 0.00 67 1005.1
20260905164604 68 67 0.9 2.6 0.00 0.00 0.00 69 1005.1
20260905164106 67 151 0.9 2.6 0.00 0.00 0.00 71 1005.1
20260905163605 67 140 0.9 2.6 0.00 0.00 0.00 72 1005.3
20260905163104 66 224 0.9 1.7 0.00 0.00 0.00 73 1005.1
20260905162604 65 202 1.7 4.3 0.00 0.00 0.00 74 1005.1
20260905162106 65 202 1.7 4.3 0.00 0.00 0.00 74 1005.3
20260905161604 65 202 0.9 1.7 0.00 0.00 0.00 75 1005.3
20260905160604 64 225 0.9 2.6 0.00 0.00 0.00 77 1005.4
20260905160105 64 139 1.7 1.7 0.00 0.00 0.00 78 1005.4
20260905154604 61 124 0.0 5.2 0.00 0.00 0.00 83 1005.4
20260905153104 59 112 0.0 2.6 0.00 0.00 0.00 87 1005.4
20260905152104 57 77 1.7 2.6 0.00 0.00 0.00 89 1005.2
20260905151604 57 77 1.7 2.6 0.00 0.00 0.00 89 1005.2
20260905150604 55 135 0.9 2.6 0.00 0.00 0.00 91 1005.4
20260905145105 55 131 1.7 2.6 0.00 0.00 0.00 91 1005.2
20260905144605 55 117 0.9 4.3 0.00 0.00 0.00 91 1005.1
20260905144104 55 112 0.9 2.6 0.00 0.00 0.00 91 1005.2
20260905143604 55 137 0.9 2.6 0.00 0.00 0.00 91 1005.4
20260905143105 54 124 0.9 2.6 0.00 0.00 0.00 91 1005.1
20260905142604 54 103 0.9 2.6 0.00 0.00 0.00 91 1005.1
20260905142104 54 122 0.9 2.6 0.00 0.00 0.00 91 1005.1
20260905141604 55 144 0.9 2.6 0.00 0.00 0.00 91 1005.1
20260905141105 55 128 0.9 4.3 0.00 0.00 0.00 91 1005.1
20260905140105 55 135 0.9 2.6 0.00 0.00 0.00 91 1005.1
20260905135604 55 157 0.9 2.6 0.00 0.00 0.00 91 1005.1
20260905135104 55 110 0.0 1.7 0.00 0.00 0.00 91 1004.7
20260905134104 55 112 0.0 1.7 0.00 0.00 0.00 91 1004.7
20260905133605 55 135 0.9 1.7 0.00 0.00 0.00 91 1004.9
20260905133104 55 112 0.9 1.7 0.00 0.00 0.00 91 1004.7
20260905132605 55 67 0.0 2.6 0.00 0.00 0.00 91 1004.7
20260905131605 55 123 0.9 2.6 0.00 0.00 0.00 91 1004.7
20260905131104 55 112 0.9 1.7 0.00 0.00 0.00 91 1004.7
20260905130604 55 108 1.7 4.3 0.00 0.00 0.00 90 1004.7
20260905130104 55 135 0.9 2.6 0.00 0.00 0.00 90 1004.7
20260905125604 55 147 0.9 1.7 0.00 0.00 0.00 90 1004.7
20260905124604 55 135 0.9 2.6 0.00 0.00 0.00 90 1004.7
20260905124104 55 135 1.7 4.3 0.00 0.00 0.00 89 1004.7
20260905123605 55 153 1.7 2.6 0.00 0.00 0.00 89 1004.7
20260905123104 55 113 0.9 1.7 0.00 0.00 0.00 89 1004.7
20260905122605 55 125 1.7 2.6 0.00 0.00 0.00 89 1004.7
20260905122105 55 157 1.7 2.6 0.00 0.00 0.00 89 1004.7
20260905121604 55 67 0.9 1.7 0.00 0.00 0.00 89 1004.7
20260905121104 55 157 0.0 2.6 0.00 0.00 0.00 89 1004.7
20260905115605 55 140 0.9 4.3 0.00 0.00 0.00 88 1004.7
20260905115104 55 157 0.9 4.3 0.00 0.00 0.00 88 1004.7
20260905114603 55 137 0.9 2.6 0.00 0.00 0.00 88 1004.7
20260905114104 55 155 1.7 2.6 0.00 0.00 0.00 88 1004.7
20260905113604 55 157 0.9 2.6 0.00 0.00 0.00 88 1004.7
20260905112604 55 135 0.9 2.6 0.00 0.00 0.00 88 1004.7
20260905112104 55 161 1.7 5.2 0.00 0.00 0.00 88 1004.7
20260905111104 55 135 0.9 2.6 0.00 0.00 0.00 87 1004.9
20260905110105 55 157 1.7 2.6 0.00 0.00 0.00 87 1004.9
20260905105604 55 124 0.9 4.3 0.00 0.00 0.00 87 1004.7
20260905105105 55 139 0.9 1.7 0.00 0.00 0.00 86 1004.7
20260905104604 55 151 0.9 1.7 0.00 0.00 0.00 86 1004.7
20260905103605 56 135 0.0 0.9 0.00 0.00 0.00 86 1004.7
20260905103104 56 135 0.0 1.7 0.00 0.00 0.00 86 1004.9
20260905102604 56 135 1.7 2.6 0.00 0.00 0.00 86 1005.1
20260905101604 56 132 0.9 2.6 0.00 0.00 0.00 85 1005.1
20260905101105 56 75 0.9 2.6 0.00 0.00 0.00 85 1005.1
20260905100604 56 90 0.9 2.6 0.00 0.00 0.00 85 1005.1
20260905100104 56 102 0.9 1.7 0.00 0.00 0.00 84 1005.1
20260905095604 56 133 0.9 1.7 0.00 0.00 0.00 84 1005.1
20260905095105 56 135 0.9 1.7 0.00 0.00 0.00 84 1005.1
20260905094603 57 135 0.0 1.7 0.00 0.00 0.00 84 1005.1
20260905094104 57 112 0.9 2.6 0.00 0.00 0.00 84 1005.1
20260905093604 57 135 0.9 1.7 0.00 0.00 0.00 84 1005.1
20260905092604 56 112 0.9 1.7 0.00 0.00 0.00 84 1005.1
20260905091604 56 90 0.0 0.9 0.00 0.00 0.00 83 1005.1
20260905091104 56 68 0.0 1.7 0.00 0.00 0.00 83 1005.1
20260905090104 56 112 0.0 1.7 0.00 0.00 0.00 82 1005.1
20260905085604 57 157 0.0 1.7 0.00 0.00 0.00 82 1005.4
20260905085104 57 112 0.0 0.9 0.00 0.00 0.00 82 1005.2
20260905084605 57 135 0.0 0.9 0.00 0.00 0.00 82 1005.4
20260905084103 57 137 0.9 1.7 0.00 0.00 0.00 81 1005.1
20260905082105 57 137 0.9 1.7 0.00 0.00 0.00 81 1005.1
20260905081604 57 137 0.9 1.7 0.00 0.00 0.00 81 1005.1
20260905081104 57 112 0.0 0.0 0.00 0.00 0.00 81 1005.2
20260905080604 57 112 0.0 1.7 0.00 0.00 0.00 81 1005.1
20260905080104 58 135 0.9 1.7 0.00 0.00 0.00 81 1005.1
20260905075604 58 135 0.9 1.7 0.00 0.00 0.00 81 1005.1
20260905074604 58 112 0.9 1.7 0.00 0.00 0.00 81 1005.1
20260905073604 57 135 0.9 1.7 0.00 0.00 0.00 82 1005.1
20260905073104 58 131 0.9 1.7 0.00 0.00 0.00 82 1005.1
20260905072603 58 84 0.0 1.7 0.00 0.00 0.00 82 1005.1
20260905072104 58 112 0.0 0.9 0.00 0.00 0.00 82 1005.1
20260905071603 58 96 0.0 1.7 0.00 0.00 0.00 82 1004.9
20260905071104 58 157 0.0 0.9 0.00 0.00 0.00 82 1005.1
20260905070604 58 157 0.0 0.9 0.00 0.00 0.00 83 1005.1
20260905070104 58 157 0.9 0.9 0.00 0.00 0.00 84 1005.1
20260905065104 58 112 0.0 0.9 0.00 0.00 0.00 85 1005.1
20260905064104 58 108 0.0 1.7 0.00 0.00 0.00 86 1004.9
20260905063604 58 135 0.0 2.6 0.00 0.00 0.00 87 1004.9
20260905063104 58 90 0.9 1.7 0.00 0.00 0.00 87 1004.9
20260905062606 58 90 0.0 2.6 0.00 0.00 0.00 87 1005.1
20260905062106 58 67 0.0 1.7 0.00 0.00 0.00 87 1005.1
20260905061605 58 157 0.0 1.7 0.00 0.00 0.00 86 1005.1
20260905061107 58 159 0.0 1.7 0.00 0.00 0.00 86 1005.1
20260905060606 58 180 0.9 2.6 0.00 0.00 0.00 86 1005.1
20260905055105 58 157 0.0 0.0 0.00 0.00 0.00 84 1005.1
20260905054106 58 190 0.0 0.9 0.00 0.00 0.00 83 1005.1
20260905053606 58 45 0.0 0.0 0.00 0.00 0.00 82 1005.1
20260905053106 58 45 0.0 1.7 0.00 0.00 0.00 82 1005.1
20260905052606 58 202 0.0 0.0 0.00 0.00 0.00 82 1005.1
20260905052105 59 202 0.0 0.0 0.00 0.00 0.00 81 1005.1
20260905051606 59 198 0.0 0.0 0.00 0.00 0.00 80 1005.1
20260905051106 59 161 0.0 0.9 0.00 0.00 0.00 79 1005.1
20260905050605 59 22 0.0 0.0 0.00 0.00 0.00 79 1005.1
20260905050107 60 12 0.0 1.7 0.00 0.00 0.00 78 1005.3
20260905045606 60 292 0.0 0.0 0.00 0.00 0.00 77 1005.3
20260905044606 61 292 0.0 0.0 0.00 0.00 0.00 77 1005.2
20260905044105 61 292 0.0 0.0 0.00 0.01 0.00 76 1005.4
20260905043606 61 247 1.7 5.2 0.00 0.02 0.00 76 1005.3
20260905043105 61 216 0.0 0.9 0.00 0.02 0.00 75 1005.1
20260905042606 61 337 0.0 4.3 0.00 0.03 0.00 74 1005.1
20260905042105 62 263 0.9 1.7 0.00 0.04 0.00 74 1005.1
20260905041605 62 292 0.0 0.0 0.00 0.05 0.00 73 1005.1
20260905040605 62 283 1.7 7.0 0.00 0.06 0.00 72 1005.1
20260905040107 63 236 1.7 7.0 0.00 0.07 0.00 72 1005.1
20260905035606 63 289 1.7 5.2 0.00 0.08 0.00 72 1005.1
20260905035107 63 253 2.6 6.1 0.00 0.09 0.00 72 1004.8
20260905034605 63 230 1.7 7.0 0.00 0.10 0.00 72 1005.0
20260905034106 63 219 4.3 7.8 0.00 0.10 0.00 72 1004.7
20260905033606 63 263 2.6 8.7 0.00 0.10 0.00 72 1004.7
20260905032605 64 290 1.7 5.2 0.00 0.10 0.00 71 1004.5
20260905032106 64 236 2.6 7.0 0.00 0.10 0.00 71 1004.4
20260905031107 64 267 2.6 7.0 0.00 0.10 0.00 71 1004.4
20260905030605 64 239 2.6 7.0 0.00 0.11 0.00 70 1004.4
20260905030107 64 237 2.6 7.0 0.00 0.11 0.00 70 1004.4
20260905025107 65 273 1.7 7.0 0.00 0.12 0.00 67 1004.1
20260905024606 65 240 4.3 7.8 0.00 0.13 0.00 66 1004.1
20260905024105 66 242 4.3 8.7 0.00 0.14 0.00 65 1004.1
20260905023607 66 249 4.3 10.4 0.00 0.14 0.00 64 1004.1
20260905023106 66 298 2.6 6.1 0.00 0.15 0.00 63 1004.1
20260905022606 67 251 3.5 8.7 0.00 0.16 0.00 61 1004.1
20260905022106 67 240 2.6 8.7 0.00 0.17 0.00 60 1004.1
20260905021605 68 257 2.6 7.0 0.00 0.17 0.00 59 1004.1
20260905021105 68 266 1.7 4.3 0.00 0.17 0.00 57 1004.0
20260905020605 69 261 3.5 8.7 0.00 0.17 0.00 56 1004.1
20260905020105 70 269 2.6 10.4 0.00 0.17 0.00 54 1004.1
20260905015605 70 280 2.6 7.0 0.00 0.17 0.00 53 1004.1
20260905015106 71 280 2.6 5.2 0.00 0.17 0.00 53 1004.1
20260905014605 72 265 2.6 8.7 0.00 0.17 0.00 51 1004.1
20260905014106 73 234 4.3 12.2 0.00 0.17 0.00 49 1004.1
20260905013605 74 288 1.7 2.6 0.00 0.17 0.00 49 1004.1
20260905012606 74 208 0.9 1.7 0.00 0.17 0.00 49 1004.1
20260905012105 74 179 1.7 2.6 0.00 0.17 0.00 49 1004.0
20260905011606 75 173 1.7 4.3 0.00 0.17 0.00 49 1003.8
20260905011105 75 223 1.7 4.3 0.00 0.17 0.00 49 1003.7
20260905010606 74 200 0.9 5.2 0.00 0.17 0.00 48 1003.7
20260905010106 74 138 0.9 6.1 0.00 0.17 0.00 48 1004.0
20260905005606 75 267 2.6 5.2 0.00 0.17 0.00 46 1003.7
20260905005106 76 250 1.7 6.1 0.00 0.17 0.00 46 1003.7
20260905004606 76 204 0.0 6.1 0.00 0.17 0.00 47 1003.6
20260905004106 75 162 1.7 5.2 0.00 0.17 0.00 48 1003.4
20260905003605 75 229 1.7 5.2 0.00 0.17 0.00 47 1003.5
20260905003106 75 235 3.5 7.0 0.00 0.17 0.00 46 1003.4
20260905002605 76 245 3.5 7.8 0.00 0.17 0.00 46 1003.4
20260905002106 76 210 0.9 5.2 0.00 0.17 0.00 46 1003.4
20260905001605 76 263 1.7 6.1 0.00 0.17 0.00 46 1003.4
20260905000606 76 175 0.9 5.2 0.00 0.17 0.00 46 1003.4
20260905000107 76 233 4.3 7.0 0.00 0.17 0.00 45 1003.4
20260904235605 76 287 3.5 5.2 0.00 0.17 0.00 45 1003.4
20260904235105 76 185 1.7 7.0 0.00 0.17 0.00 45 1003.4
20260904234605 76 272 2.6 7.8 0.00 0.17 0.00 45 1003.4
20260904234105 76 252 3.5 7.0 0.00 0.17 0.00 45 1003.7
20260904233605 76 263 2.6 6.1 0.00 0.17 0.00 45 1003.5
20260904233105 76 214 2.6 5.2 0.00 0.17 0.00 44 1003.6
20260904232605 76 219 4.3 7.0 0.00 0.17 0.00 42 1003.7
20260904232106 76 248 2.6 7.8 0.00 0.17 0.00 42 1003.7
20260904231605 76 238 3.5 7.8 0.00 0.17 0.00 42 1003.7
20260904230606 76 253 3.5 7.0 0.00 0.17 0.00 44 1003.7
20260904230105 76 284 3.5 8.7 0.00 0.17 0.00 44 1003.7
20260904225605 75 244 2.6 6.1 0.00 0.17 0.00 43 1003.7
20260904224105 75 221 4.3 7.0 0.00 0.17 0.00 44 1004.1